Regional Weather Roundup
Issued by NWS

Home | Current Version | Previous Version | Text Only | Print | Product List | Glossary On
Versions: 1 2 3 4 5 6 7 8 9 10 11 12 13 14 15 16 17 18 19 20 21 22 23 24 25 26 27 28 29 30 31 32 33 34 35 36 37 38 39 40 41 42 43 44 45 46 47 48 49 50
000
ASUS43 KLSX 271807
RWRMO

WEATHER SUMMARY FOR MISSOURI
NATIONAL WEATHER SERVICE SPRINGFIELD MO
100 PM CDT WED MAY 27 2015

NOTE: "FAIR" INDICATES FEW OR NO CLOUDS BELOW 12,000 FEET WITH NO
       SIGNIFICANT WEATHER AND/OR OBSTRUCTIONS TO VISIBILITY.
       CURRENT SKY AND/OR WEATHER CONDITIONS ARE NOT AVAILABLE FOR
       CHILLICOTHE AND FARMINGTON.

MOZ001>031-035>038-043-044-053-054-271900-
...NORTHERN AND WESTERN MISSOURI...

CITY           SKY/WX    TMP DP  RH WIND       PRES   REMARKS
KANSAS CTY INT PTSUNNY   79  54  41 E5        30.10F
6HR MIN TEMP:  57; 6HR MAX TEMP:  79;

KANSAS C DTWN  FAIR      80  53  39 CALM      30.09S
6HR MIN TEMP:  63; 6HR MAX TEMP:  81;

LEE`S SUMMIT   FAIR      78  52  40 VRB3      30.12R
6HR MIN TEMP:  61; 6HR MAX TEMP:  79;

ST JOSEPH      FAIR      79  54  41 SE3       30.09F
6HR MIN TEMP:  59; 6HR MAX TEMP:  79;

KIRKSVILLE     FAIR      76  60  57 W12       30.09S
6HR MIN TEMP:  61; 6HR MAX TEMP:  76;


$$
MOZ066>068-077>081-088>096-101>105-271900-
...SOUTHWEST MISSOURI...

CITY           SKY/WX    TMP DP  RH WIND       PRES   REMARKS
SPRINGFIELD    PTSUNNY   78  63  59 N3        30.11F
6HR MIN TEMP:  65; 6HR MAX TEMP:  81; 6HR PCP:  0.01;

JOPLIN         PTSUNNY   79  66  64 NW3       30.11F
6HR MIN TEMP:  66; 6HR MAX TEMP:  81; 6HR PCP: TRACE;


$$
MOZ032>034-039>042-045>050-055>058-069>072-271900-
...CENTRAL MISSOURI...

CITY           SKY/WX    TMP DP  RH WIND       PRES   REMARKS
COLUMBIA       FAIR      78  58  49 W10       30.10R
6HR MIN TEMP:  65; 6HR MAX TEMP:  78;

JEFFERSON CITY FAIR      79  54  41 NW8       30.08S
6HR MIN TEMP:  67; 6HR MAX TEMP:  79;

ROLLA          FAIR      77  65  66 NW10      30.09S
6HR MIN TEMP:  63; 6HR MAX TEMP:  77; 6HR PCP: TRACE;

SEDALIA        FAIR      78  56  46 W6        30.12S
6HR MIN TEMP:  65; 6HR MAX TEMP:  79;

WHITEMAN AFB   FAIR      77  56  48 W5        30.10S

$$
MOZ051-052-059>065-271900-
...EAST CENTRAL MISSOURI...

CITY           SKY/WX    TMP DP  RH WIND       PRES   REMARKS
ST LOUIS INTL  FAIR      81  63  54 W10       30.06F
6HR MIN TEMP:  70; 6HR MAX TEMP:  82; 6HR PCP: TRACE;

SPIRIT OF STL  FAIR      80  64  58 W10G17    30.05S
6HR MIN TEMP:  68; 6HR MAX TEMP:  80; 6HR PCP: TRACE;

ST CHARLES     FAIR      79  62  56 W12       30.05S
6HR MIN TEMP:  67; 6HR MAX TEMP:  80;


$$
MOZ072>076-082>087-097>100-106>115-271900-
...SOUTH CENTRAL AND SOUTHEAST MISSOURI...

CITY           SKY/WX    TMP DP  RH WIND       PRES   REMARKS
CAPE GIRARDEAU FAIR      76  65  68 SW8       30.09F
6HR MIN TEMP:  65; 6HR MAX TEMP:  77; 6HR PCP:  0.04;

FARMINGTON     FAIR      77  63  61 SW7       30.14R
6HR MIN TEMP:  61; 6HR MAX TEMP:  77; 6HR PCP:  0.26;

POPLAR BLUFF   FAIR      77  67  71 S12       30.10F
6HR MIN TEMP:  66; 6HR MAX TEMP:  78; 6HR PCP: TRACE;

WEST PLAINS    FAIR      79  64  60 CALM      30.14S
6HR MIN TEMP:  65; 6HR MAX TEMP:  79;


$$


USA.gov is the U.S. government's official web portal to all federal, state and local government web resources and services.